Regional Weather Roundup
Issued by NWS

Home | Current Version | Previous Version | Text Only | Print | Product List | Glossary Off
Versions: 1 2 3 4 5 6 7 8 9 10 11 12 13 14 15 16 17 18 19 20 21 22 23 24 25 26 27 28 29 30 31 32 33 34 35 36 37 38 39 40 41 42 43 44 45 46 47 48 49 50

000
ASUS43 KDTX 280110
RWRMI
MICHIGAN HOURLY REGIONAL WEATHER ROUNDUP
NATIONAL WEATHER SERVICE DETROIT/PONTIAC MI
800 PM EST SAT DEC 27 2014

NOTE: "FAIR" INDICATES FEW OR NO CLOUDS BELOW 12,000 FEET WITH NO
SIGNIFICANT WEATHER AND/OR OBSTRUCTION TO VISIBILITY.

MIZ047>049-052>055-059>063-066>070-074>076-081>083-280200-
SOUTHEAST LOWER MICHIGAN

CITY           SKY/WX    TMP DP  RH WIND       PRES   REMARKS
ADRIAN         CLOUDY    45  36  70 W12G23    30.00R
ALMA           CLOUDY    37  33  84 SW13G21   29.94S WCI  29
ANN ARBOR      CLOUDY    45  38  76 W23G31    29.97R
BAD AXE        CLOUDY    41  37  85 W20G30    29.88R
CARO           CLOUDY    40  34  80 W17G24    29.91R WCI  31
DETROIT CITY   CLOUDY    50  44  80 SW14G21   29.92F
DETROIT        CLOUDY    48  45  89 SW15G22   29.95S
FLINT          CLOUDY    41  33  73 W14G29    29.96R
GROSSE ILE     CLOUDY    48  45  87 SW12      29.94F
HILLSDALE      RAIN      39  34  80 W14G30    30.00R WCI  31
HOWELL         CLOUDY    38  33  80 W15G25    29.96R WCI  30

CITY           SKY/WX    TMP DP  RH WIND       PRES   REMARKS
JACKSON        CLOUDY    38  32  79 W12G25    29.99R WCI  30
LAMBERTVILLE   DRIZZLE   48  45  87 SW9G17    29.98R
LANSING        CLOUDY    38  31  76 W16G28    29.99R WCI  29
LAPEER         CLOUDY    42  34  74 W12G28    29.92R
MASON          CLOUDY    37  32  81 W16G25    29.98R WCI  28
MONROE         CLOUDY    48  45  87 SW16      29.96R
MT. CLEMENS    CLOUDY    48  48 100 SW15G23   29.89S
PONTIAC        CLOUDY    44  37  76 W20G29    29.93R
PORT HOPE        N/A     43  35  73 W10G25    29.82R
PORT HURON     CLOUDY    46  45  93 S7        29.89S
TRI CITIES     CLOUDY    40  33  76 W20G25    29.93R WCI  30
TROY           CLOUDY    49  42  76 W15G25    29.94R
SAGINAW HB     CLOUDY    39  34  81 W17G23    29.93R WCI  30
$$
MIZ043>046-050>051-056>058-064>065-071>073-077>080-280200-
SOUTHWEST LOWER MICHIGAN

CITY           SKY/WX    TMP DP  RH WIND       PRES   REMARKS
BATTLE CREEK   CLOUDY    38  31  76 W12G22    30.01R WCI  30
BENTON HARBOR  CLOUDY    35  30  82 W15G22    30.05F WCI  25
BIG RAPIDS     CLOUDY    36  33  89 W16       29.92S WCI  26
COLDWATER      LGT RAIN  37  33  86 W10       30.01F WCI  29
FREMONT        CLOUDY    36  30  81 W9        29.97R WCI  29
HOLLAND        CLOUDY    38  31  76 W12G22    30.03R WCI  30
GRAND RAPIDS   CLOUDY    37  31  78 W15G25    29.99S WCI  28
IONIA          CLOUDY    38  32  81 W17G26    29.97R WCI  28
KALAMAZOO      CLOUDY    37  31  78 W16G22    30.02F WCI  28
LUDINGTON      CLOUDY    36  32  87 NW7       29.97R WCI  30
MARSHALL       CLOUDY    37  32  84 W14G23    30.00S WCI  28
MOUNT PLEASANT CLOUDY    38  33  82 CALM      29.91S
MUSKEGON       CLOUDY    38  29  70 W15G22    30.00R WCI  29
SOUTH HAVEN    CLOUDY    37  31  77 W14G20    30.04S WCI  29
$$
MIZ016>042-280200-
NORTHERN LOWER MICHIGAN

CITY           SKY/WX    TMP DP  RH WIND       PRES   REMARKS
ALPENA         CLOUDY    35  32  88 NW12G21   29.84R WCI  27
BEAVER ISLAND  CLOUDY    32  26  81 NW14G21   29.93R WCI  22
BELLAIRE       FLURRIES  34  32  92 NW3       29.92R
CADILLAC       LGT SNOW  33  32  96 W10G16    29.89R WCI  25
CHARLEVOIX     CLOUDY    33  31  94 NW16G22   29.94R WCI  22
FRANKFORT      FLURRIES  34  32  92 N5        29.96R WCI  30
GAYLORD        FLURRIES  31  32 100 VRB7      29.86R WCI  24
GRAYLING       CLOUDY    33  32  96 NW8       29.88R WCI  26
HARBOR SPRINGS FLURRIES  32  29  90 W9        29.88R WCI  24
HOUGHTON LAKE  MIX PCPN  34  32  92 W13       29.87R WCI  25
MANISTEE       CLOUDY    34  30  86 CALM      29.96R
OSCODA         CLOUDY    42  34  74 W17G29    29.82R
PELLSTON       CLOUDY    32  28  85 NW18G32   29.89R WCI  20
ROGERS CITY    CLOUDY    33  32  96 NW13G20   29.85R WCI  24
TRAVERSE CITY  FLURRIES  35  31  85 NW8       29.93R WCI  29
$$
MIZ007>008-015-280200-
EASTERN UPPER MICHIGAN

CITY           SKY/WX    TMP DP  RH WIND       PRES   REMARKS
KINROSS        CLOUDY    30  28  93 NW18G33   29.82R WCI  18
MACKINAC ISLAN CLOUDY    32  30  92 NW13G26   29.86R WCI  22
NEWBERRY       CLOUDY    28  26  89 NW10G18   29.88R WCI  19
S. S. MARIE    CLOUDY    32  26  78 NW16G26   29.79F WCI  21
MUNISING         N/A     32  24  72 NW8       29.92R WCI  25
$$
MIZ004>006-011>014-085-280200-
CENTRAL UPPER MICHIGAN

CITY           SKY/WX    TMP DP  RH WIND       PRES   REMARKS
MANISTIQUE     CLOUDY    30  29  94 NW7       29.93R WCI  23
ESCANABA       CLOUDY    30  27  86 W6        29.95R WCI  24
MENOMINEE      CLOUDY    32  28  86 NW3       29.97R
SAWYER-GWINN   CLOUDY    27  23  86 W5        29.91R WCI  21
$$
MIZ001>003-009>011-084-280200-
WESTERN UPPER MICHIGAN

CITY           SKY/WX    TMP DP  RH WIND       PRES   REMARKS
IRON MOUNTAIN  FLURRIES  28  24  85 W6        29.94R WCI  22
HOUGHTON       MOCLDY    24  17  74 W18G30    29.90S WCI  10
COPPER HARBOR    N/A     29  22  75 N21       29.91R WCI  16
IRONWOOD       CLEAR     12  12 100 W8        29.96R WCI   1
$$

ABBREVIATIONS USED IN REMARKS
   TC - TEMPERATURE IN CELSIUS
  WCI - WIND CHILL INDEX
   HX - HEAT INDEX
  VSB - VISIBILITY




USA.gov is the U.S. government's official web portal to all federal, state and local government web resources and services.